,,,PA_Meas_PMT16A,,PR_Meas_QMR101_102,,RH_Meas_QMH101,,SR_Meas_QMS101,,TA_Meas_QMH101,,GenWind,,GenWind,
date,time,status,PA,status,PR,status,RH,status,SR,status,TA,status,DirAvg,status,SpdAvg,
2009-08-16, 00:00:04,VALID,1000.29,VALID,0,VALID,89.1368,VALID,0,VALID,22.4543,VALID,51,VALID,1.33203,
2009-08-16, 00:01:04,VALID,1000.27,VALID,0,VALID,88.8546,VALID,0,VALID,22.4738,VALID,48,VALID,1.20352,
2009-08-16, 00:02:04,VALID,1000.25,VALID,0,VALID,89.2055,VALID,0,VALID,22.4933,VALID,48,VALID,0.909375,
2009-08-16, 00:03:04,VALID,1000.24,VALID,0,VALID,89.2589,VALID,0,VALID,22.4916,VALID,48,VALID,0.512109,
2009-08-16, 00:04:04,VALID,1000.26,VALID,0,VALID,88.9003,VALID,0,VALID,22.5128,VALID,48,VALID,0.00546875,
2009-08-16, 00:05:04,VALID,1000.26,VALID,0,VALID,89.4344,VALID,0,VALID,22.5128,VALID,48,VALID,0.0925781,
2009-08-16, 00:06:04,VALID,1000.23,VALID,0,VALID,89.6862,VALID,0,VALID,22.4916,VALID,46,VALID,0.0628906,
2009-08-16, 00:07:04,VALID,1000.22,VALID,0,VALID,89.8464,VALID,0,VALID,22.5306,VALID,18,VALID,0.616016,
2009-08-16, 00:08:04,VALID,1000.19,VALID,0,VALID,89.6404,VALID,0,VALID,22.5323,VALID,16,VALID,0.487109,
2009-08-16, 00:09:04,VALID,1000.18,VALID,0,VALID,89.526,VALID,0,VALID,22.4933,VALID,16,VALID,0.441016,
2009-08-16, 00:10:04,VALID,1000.15,VALID,0,VALID,89.793,VALID,0,VALID,22.4933,VALID,16,VALID,0.655078,
2009-08-16, 00:11:04,VALID,1000.13,VALID,0,VALID,89.8998,VALID,0,VALID,22.4933,VALID,16,VALID,0.932422,
2009-08-16, 00:12:04,VALID,1000.16,VALID,0,VALID,89.854,VALID,0,VALID,22.4933,VALID,16,VALID,0.701172,
2009-08-16, 00:13:04,VALID,1000.15,VALID,0,VALID,89.7625,VALID,0,VALID,22.4933,VALID,16,VALID,0.638672,
2009-08-16, 00:14:04,VALID,1000.16,VALID,0,VALID,89.8006,VALID,0,VALID,22.4543,VALID,16,VALID,0.676562,
2009-08-16, 00:15:04,VALID,1000.15,VALID,0,VALID,89.8464,VALID,0,VALID,22.4331,VALID,16,VALID,0.692969,
2009-08-16, 00:16:04,VALID,1000.14,VALID,0,VALID,89.9609,VALID,0,VALID,22.4348,VALID,16,VALID,0.769922,
2009-08-16, 00:17:04,VALID,1000.15,VALID,0,VALID,89.9456,VALID,0,VALID,22.4136,VALID,16,VALID,0.780859,
2009-08-16, 00:18:04,VALID,1000.16,VALID,0,VALID,89.8617,VALID,0,VALID,22.3746,VALID,16,VALID,0.620703,
2009-08-16, 00:19:04,VALID,1000.11,VALID,0,VALID,90.1821,VALID,0,VALID,22.3568,VALID,16,VALID,0.869531,
2009-08-16, 00:20:04,VALID,1000.11,VALID,0,VALID,90.1287,VALID,0,VALID,22.3373,VALID,28,VALID,0.861328,
2009-08-16, 00:21:04,VALID,1000.07,VALID,0,VALID,90.0143,VALID,0,VALID,22.3178,VALID,34,VALID,0.771875,
2009-08-16, 00:22:04,VALID,1000.05,VALID,0,VALID,90.1287,VALID,0,VALID,22.2381,VALID,35,VALID,1,
2009-08-16, 00:23:04,VALID,1000.01,VALID,0,VALID,90.0524,VALID,0,VALID,22.2202,VALID,38,VALID,1.06406,
2009-08-16, 00:24:04,VALID,1000.01,VALID,0,VALID,90.6399,VALID,0,VALID,22.1795,VALID,45,VALID,1.25156,
2009-08-16, 00:25:04,VALID,999.982,VALID,0,VALID,90.8535,VALID,0,VALID,22.2007,VALID,48,VALID,1.31914,
2009-08-16, 00:26:04,VALID,999.993,VALID,0,VALID,90.8383,VALID,0,VALID,22.2202,VALID,48,VALID,1.42852,
2009-08-16, 00:27:04,VALID,999.944,VALID,0,VALID,91.0061,VALID,0,VALID,22.199,VALID,47,VALID,1.64297,
2009-08-16, 00:28:04,VALID,999.986,VALID,0,VALID,90.8764,VALID,0,VALID,22.2202,VALID,50,VALID,1.61953,
2009-08-16, 00:29:04,VALID,999.942,VALID,0,VALID,90.9298,VALID,0,VALID,22.2397,VALID,49,VALID,1.55625,
2009-08-16, 00:30:04,VALID,999.959,VALID,0,VALID,90.8917,VALID,0,VALID,22.2592,VALID,42,VALID,1.48125,
2009-08-16, 00:31:04,VALID,999.931,VALID,0,VALID,90.7085,VALID,0,VALID,22.2592,VALID,40,VALID,1.37695,
2009-08-16, 00:32:04,VALID,999.941,VALID,0,VALID,90.411,VALID,0,VALID,22.2592,VALID,39,VALID,1.20625,
2009-08-16, 00:33:04,VALID,999.96,VALID,0,VALID,90.2508,VALID,0,VALID,22.2397,VALID,39,VALID,0.879687,
2009-08-16, 00:34:04,VALID,999.893,VALID,0,VALID,90.1516,VALID,0,VALID,22.1812,VALID,39,VALID,0.766406,
2009-08-16, 00:35:04,VALID,999.897,VALID,0,VALID,90.1363,VALID,0,VALID,22.121,VALID,39,VALID,0.516797,
2009-08-16, 00:36:04,VALID,999.87,VALID,0,VALID,90.1897,VALID,0,VALID,22.1227,VALID,39,VALID,0.501953,
2009-08-16, 00:37:04,VALID,999.827,VALID,0,VALID,90.1363,VALID,0.112286,VALID,22.0625,VALID,39,VALID,0.491406,
2009-08-16, 00:38:04,VALID,999.784,VALID,0,VALID,90.2126,VALID,0,VALID,22.0218,VALID,39,VALID,0.501562,
2009-08-16, 00:39:04,VALID,999.772,VALID,0,VALID,90.5331,VALID,0,VALID,22.0235,VALID,39,VALID,0.669922,
2009-08-16, 00:40:04,VALID,999.75,VALID,0,VALID,91.1358,VALID,0,VALID,22.0235,VALID,50,VALID,0.996875,
2009-08-16, 00:41:04,VALID,999.72,VALID,0,VALID,91.3342,VALID,0,VALID,22.082,VALID,51,VALID,0.813281,
2009-08-16, 00:42:04,VALID,999.704,VALID,0,VALID,91.3037,VALID,0,VALID,22.1422,VALID,52,VALID,0.693359,
2009-08-16, 00:43:04,VALID,999.714,VALID,0,VALID,91.0519,VALID,0,VALID,22.121,VALID,52,VALID,0.579297,
2009-08-16, 00:44:04,VALID,999.704,VALID,0,VALID,90.9603,VALID,0,VALID,22.1422,VALID,52,VALID,0.828906,
2009-08-16, 00:45:04,VALID,999.72,VALID,0,VALID,91.3723,VALID,0,VALID,22.1617,VALID,52,VALID,0.839063,
2009-08-16, 00:46:04,VALID,999.755,VALID,0,VALID,91.1892,VALID,0,VALID,22.1812,VALID,52,VALID,0.841406,
2009-08-16, 00:47:04,VALID,999.759,VALID,0,VALID,90.8688,VALID,0,VALID,22.1405,VALID,52,VALID,0.730469,
2009-08-16, 00:48:04,VALID,999.728,VALID,0,VALID,90.7391,VALID,0,VALID,22.1227,VALID,52,VALID,0.521094,
2009-08-16, 00:49:04,VALID,999.769,VALID,0,VALID,90.7772,VALID,0,VALID,22.0642,VALID,52,VALID,0.573438,
2009-08-16, 00:50:04,VALID,999.734,VALID,0,VALID,91.2503,VALID,0,VALID,22.004,VALID,46,VALID,0.624219,
2009-08-16, 00:51:04,VALID,999.703,VALID,0,VALID,91.5478,VALID,0,VALID,22.0625,VALID,46,VALID,0.728516,
2009-08-16, 00:52:04,VALID,999.706,VALID,0,VALID,91.5097,VALID,0,VALID,22.0837,VALID,40,VALID,0.912891,
2009-08-16, 00:53:04,VALID,999.698,VALID,0,VALID,91.4944,VALID,0,VALID,22.1227,VALID,40,VALID,0.976563,
2009-08-16, 00:54:04,VALID,999.7,VALID,0,VALID,91.2808,VALID,0,VALID,22.082,VALID,40,VALID,0.957812,
2009-08-16, 00:55:04,VALID,999.669,VALID,0,VALID,90.9146,VALID,0,VALID,22.0642,VALID,40,VALID,0.68125,
2009-08-16, 00:56:04,VALID,999.635,VALID,0,VALID,90.9451,VALID,0,VALID,22.0252,VALID,24,VALID,0.78125,
2009-08-16, 00:57:04,VALID,999.618,VALID,0,VALID,91.296,VALID,0,VALID,22.0252,VALID,13,VALID,0.856641,
2009-08-16, 00:58:04,VALID,999.589,VALID,0,VALID,91.1816,VALID,0,VALID,22.004,VALID,353,VALID,0.950391,
2009-08-16, 00:59:04,VALID,999.562,VALID,0,VALID,91.1968,VALID,0,VALID,22.004,VALID,350,VALID,0.641016,
2009-08-16, 01:00:04,VALID,999.589,VALID,0,VALID,91.029,VALID,0,VALID,22.0447,VALID,348,VALID,0.523438,
2009-08-16, 01:01:04,VALID,999.579,VALID,0,VALID,90.8993,VALID,0,VALID,22.0235,VALID,347,VALID,0.532031,
2009-08-16, 01:02:04,VALID,999.569,VALID,0,VALID,90.9527,VALID,0,VALID,22.0447,VALID,350,VALID,0.765234,
2009-08-16, 01:03:04,VALID,999.543,VALID,0,VALID,90.9298,VALID,0,VALID,22.0447,VALID,16,VALID,0.842188,
2009-08-16, 01:04:04,VALID,999.547,VALID,0,VALID,90.5865,VALID,0,VALID,22.0057,VALID,24,VALID,1.02305,
2009-08-16, 01:05:04,VALID,999.511,VALID,0,VALID,90.762,VALID,0,VALID,21.9862,VALID,37,VALID,1.09805,
2009-08-16, 01:06:04,VALID,999.511,VALID,0,VALID,90.968,VALID,0,VALID,22.0057,VALID,36,VALID,0.989453,
2009-08-16, 01:07:04,VALID,999.468,VALID,0,VALID,90.2737,VALID,0,VALID,22.0057,VALID,44,VALID,0.694141,
2009-08-16, 01:08:04,VALID,999.462,VALID,0,VALID,90.9832,VALID,0,VALID,21.9667,VALID,42,VALID,0.746875,
2009-08-16, 01:09:04,VALID,999.469,VALID,0,VALID,90.7925,VALID,0,VALID,21.9667,VALID,42,VALID,0.597656,
2009-08-16, 01:10:04,VALID,999.434,VALID,0,VALID,90.556,VALID,0,VALID,21.9455,VALID,42,VALID,0.433594,
2009-08-16, 01:11:04,VALID,999.472,VALID,0,VALID,90.3423,VALID,0,VALID,21.9472,VALID,42,VALID,0.0597656,
2009-08-16, 01:12:04,VALID,999.465,VALID,0,VALID,90.4263,VALID,0,VALID,21.9065,VALID,42,VALID,0.0980469,
2009-08-16, 01:13:04,VALID,999.441,VALID,0,VALID,90.3881,VALID,0,VALID,21.8675,VALID,42,VALID,0,
2009-08-16, 01:14:04,VALID,999.411,VALID,0,VALID,90.6628,VALID,0,VALID,21.8692,VALID,42,VALID,0.126563,
2009-08-16, 01:15:04,VALID,999.365,VALID,0,VALID,90.823,VALID,0,VALID,21.8887,VALID,42,VALID,0.192188,
2009-08-16, 01:16:04,VALID,999.349,VALID,0,VALID,90.8993,VALID,0,VALID,21.887,VALID,41,VALID,0.393359,
2009-08-16, 01:17:04,VALID,999.328,VALID,0,VALID,90.8001,VALID,0,VALID,21.9277,VALID,360,VALID,0.438672,
2009-08-16, 01:18:04,VALID,999.32,VALID,0,VALID,90.8306,VALID,0,VALID,21.926,VALID,360,VALID,0.470703,
2009-08-16, 01:19:04,VALID,999.345,VALID,0,VALID,90.7314,VALID,0,VALID,21.9455,VALID,355,VALID,0.415625,
2009-08-16, 01:20:04,VALID,999.361,VALID,0,VALID,90.6551,VALID,0,VALID,21.965,VALID,355,VALID,0.336328,
2009-08-16, 01:21:04,VALID,999.369,VALID,0,VALID,90.7238,VALID,0,VALID,21.9862,VALID,355,VALID,0.521484,
2009-08-16, 01:22:04,VALID,999.355,VALID,0,VALID,90.3652,VALID,0,VALID,21.9455,VALID,354,VALID,0.484375,
2009-08-16, 01:23:04,VALID,999.357,VALID,0,VALID,89.9074,VALID,0,VALID,21.8887,VALID,24,VALID,0.455078,
2009-08-16, 01:24:04,VALID,999.357,VALID,0,VALID,90.06,VALID,0,VALID,21.809,VALID,25,VALID,0.421484,
2009-08-16, 01:25:04,VALID,999.349,VALID,0,VALID,90.3194,VALID,0,VALID,21.8106,VALID,36,VALID,0.526953,
2009-08-16, 01:26:04,VALID,999.328,VALID,0,VALID,90.2508,VALID,0,VALID,21.8106,VALID,84,VALID,0.708203,
2009-08-16, 01:27:04,VALID,999.307,VALID,0,VALID,90.1211,VALID,0,VALID,21.8301,VALID,106,VALID,0.836719,
2009-08-16, 01:28:04,VALID,999.3,VALID,0,VALID,90.2279,VALID,0,VALID,21.9065,VALID,91,VALID,1.18594,
2009-08-16, 01:29:04,VALID,999.291,VALID,0,VALID,89.5336,VALID,0,VALID,22.0235,VALID,115,VALID,0.742578,
2009-08-16, 01:30:04,VALID,999.278,VALID,0,VALID,89.2589,VALID,0,VALID,22.1015,VALID,115,VALID,1.02852,
2009-08-16, 01:31:04,VALID,999.274,VALID,0,VALID,88.9003,VALID,0,VALID,22.2397,VALID,114,VALID,1.225,
2009-08-16, 01:32:04,VALID,999.271,VALID,0,VALID,88.1297,VALID,0,VALID,22.3568,VALID,110,VALID,0.929688,
2009-08-16, 01:33:04,VALID,999.256,VALID,0,VALID,87.2142,VALID,0,VALID,22.4543,VALID,109,VALID,1.34609,
2009-08-16, 01:34:04,VALID,999.236,VALID,0,VALID,86.558,VALID,0,VALID,22.5909,VALID,112,VALID,1.05781,
2009-08-16, 01:35:04,VALID,999.285,VALID,0,VALID,86.1079,VALID,0,VALID,22.6884,VALID,110,VALID,1.43516,
2009-08-16, 01:36:04,VALID,999.275,VALID,0,VALID,85.5662,VALID,0,VALID,22.8055,VALID,110,VALID,1.37891,
2009-08-16, 01:37:04,VALID,999.268,VALID,0,VALID,85.1618,VALID,0,VALID,22.8835,VALID,98,VALID,0.842188,
2009-08-16, 01:38:04,VALID,999.236,VALID,0,VALID,84.8109,VALID,0,VALID,22.942,VALID,109,VALID,1.16094,
2009-08-16, 01:39:04,VALID,999.238,VALID,0,VALID,84.5972,VALID,0,VALID,22.9811,VALID,114,VALID,0.917188,
2009-08-16, 01:40:04,VALID,999.236,VALID,0,VALID,84.4675,VALID,0,VALID,22.9598,VALID,121,VALID,0.880078,
2009-08-16, 01:41:04,VALID,999.214,VALID,0,VALID,84.3073,VALID,0,VALID,22.9988,VALID,125,VALID,0.877344,
2009-08-16, 01:42:04,VALID,999.231,VALID,0,VALID,84.0479,VALID,0,VALID,23.0396,VALID,123,VALID,0.723437,
2009-08-16, 01:43:04,VALID,999.241,VALID,0,VALID,83.8648,VALID,0,VALID,23.0591,VALID,116,VALID,0.502344,
2009-08-16, 01:44:04,VALID,999.249,VALID,0,VALID,83.8648,VALID,0,VALID,23.0183,VALID,124,VALID,0.738281,
2009-08-16, 01:45:04,VALID,999.269,VALID,0,VALID,83.3612,VALID,0,VALID,23.0201,VALID,141,VALID,1.16523,
2009-08-16, 01:46:04,VALID,999.302,VALID,0,VALID,82.5906,VALID,0,VALID,23.0786,VALID,139,VALID,1.54414,
2009-08-16, 01:47:04,VALID,999.283,VALID,0,VALID,82.0032,VALID,0,VALID,23.1744,VALID,131,VALID,1.55195,
2009-08-16, 01:48:04,VALID,999.303,VALID,0,VALID,81.5149,VALID,0,VALID,23.2524,VALID,136,VALID,1.48711,
2009-08-16, 01:49:04,VALID,999.335,VALID,0,VALID,80.9808,VALID,0,VALID,23.3518,VALID,135,VALID,1.22773,
2009-08-16, 01:50:04,VALID,999.332,VALID,0,VALID,80.6451,VALID,0,VALID,23.4298,VALID,132,VALID,1.14141,
2009-08-16, 01:51:04,VALID,999.371,VALID,0,VALID,80.378,VALID,0,VALID,23.4688,VALID,135,VALID,1.1875,
2009-08-16, 01:52:04,VALID,999.372,VALID,0,VALID,80.2331,VALID,0,VALID,23.4884,VALID,135,VALID,1.42578,
2009-08-16, 01:53:04,VALID,999.391,VALID,0,VALID,80.1797,VALID,0,VALID,23.5274,VALID,137,VALID,1.18438,
2009-08-16, 01:54:04,VALID,999.4,VALID,0,VALID,80.2102,VALID,0,VALID,23.5274,VALID,131,VALID,1.25625,
2009-08-16, 01:55:04,VALID,999.371,VALID,0,VALID,80.1263,VALID,0,VALID,23.5274,VALID,131,VALID,1.07422,
2009-08-16, 01:56:04,VALID,999.384,VALID,0,VALID,79.905,VALID,0,VALID,23.5274,VALID,122,VALID,1.20352,
2009-08-16, 01:57:04,VALID,999.371,VALID,0,VALID,79.6532,VALID,0,VALID,23.6054,VALID,139,VALID,1.3957,
2009-08-16, 01:58:04,VALID,999.387,VALID,0,VALID,79.6532,VALID,0,VALID,23.6036,VALID,128,VALID,1.2418,
2009-08-16, 01:59:04,VALID,999.365,VALID,0,VALID,79.5159,VALID,0,VALID,23.625,VALID,130,VALID,1.42969,
2009-08-16, 02:00:04,VALID,999.33,VALID,0,VALID,79.699,VALID,0,VALID,23.5841,VALID,138,VALID,1.19492,
2009-08-16, 02:01:04,VALID,999.324,VALID,0,VALID,79.7295,VALID,0,VALID,23.5859,VALID,142,VALID,1.15898,
2009-08-16, 02:02:04,VALID,999.313,VALID,0,VALID,79.8821,VALID,0,VALID,23.5664,VALID,135,VALID,1.96641,
2009-08-16, 02:03:04,VALID,999.303,VALID,0,VALID,79.4472,VALID,0,VALID,23.6445,VALID,135,VALID,1.51992,
2009-08-16, 02:04:04,VALID,999.276,VALID,0,VALID,79.3252,VALID,0,VALID,23.7225,VALID,135,VALID,1.22969,
2009-08-16, 02:05:04,VALID,999.271,VALID,0,VALID,78.8826,VALID,0,VALID,23.7207,VALID,134,VALID,0.943359,
2009-08-16, 02:06:04,VALID,999.272,VALID,0,VALID,78.7529,VALID,0,VALID,23.742,VALID,135,VALID,1.04766,
2009-08-16, 02:07:04,VALID,999.317,VALID,0,VALID,78.7224,VALID,0,VALID,23.7616,VALID,131,VALID,1.13984,
2009-08-16, 02:08:04,VALID,999.351,VALID,0,VALID,78.8521,VALID,0,VALID,23.7207,VALID,128,VALID,1.19961,
2009-08-16, 02:09:04,VALID,999.343,VALID,0,VALID,79.1344,VALID,0,VALID,23.7012,VALID,126,VALID,0.996484,
2009-08-16, 02:10:04,VALID,999.323,VALID,0,VALID,79.2794,VALID,0,VALID,23.6427,VALID,105,VALID,1.23359,
2009-08-16, 02:11:04,VALID,999.34,VALID,0,VALID,79.6075,VALID,0,VALID,23.5451,VALID,111,VALID,0.851172,
2009-08-16, 02:12:04,VALID,999.336,VALID,0,VALID,80.1339,VALID,0,VALID,23.4688,VALID,114,VALID,0.423438,
2009-08-16, 02:13:04,VALID,999.324,VALID,0,VALID,80.6451,VALID,0,VALID,23.3713,VALID,114,VALID,0.364844,
2009-08-16, 02:14:04,VALID,999.32,VALID,0,VALID,81.1105,VALID,0,VALID,23.3127,VALID,138,VALID,0.626172,
2009-08-16, 02:15:04,VALID,999.309,VALID,0,VALID,81.3928,VALID,0,VALID,23.2737,VALID,138,VALID,0.324609,
2009-08-16, 02:16:04,VALID,999.309,VALID,0,VALID,81.5835,VALID,0,VALID,23.2134,VALID,138,VALID,0.492188,
2009-08-16, 02:17:04,VALID,999.248,VALID,0,VALID,81.8124,VALID,0,VALID,23.1957,VALID,137,VALID,0.429297,
2009-08-16, 02:18:04,VALID,999.28,VALID,0,VALID,81.9726,VALID,0,VALID,23.1549,VALID,137,VALID,0.402734,
2009-08-16, 02:19:04,VALID,999.263,VALID,0,VALID,82.1176,VALID,0,VALID,23.1176,VALID,137,VALID,0.0398437,
2009-08-16, 02:20:04,VALID,999.266,VALID,0,VALID,82.2626,VALID,0,VALID,23.0591,VALID,137,VALID,0,
2009-08-16, 02:21:04,VALID,999.307,VALID,0,VALID,82.6212,VALID,0,VALID,22.9988,VALID,137,VALID,0.246875,
2009-08-16, 02:22:04,VALID,999.261,VALID,0,VALID,82.6517,VALID,0,VALID,22.9811,VALID,77,VALID,0.637891,
2009-08-16, 02:23:04,VALID,999.246,VALID,0,VALID,83.4986,VALID,0,VALID,22.864,VALID,62,VALID,0.774219,
2009-08-16, 02:24:04,VALID,999.187,VALID,0,VALID,84.849,VALID,0,VALID,22.8055,VALID,73,VALID,1.20664,
2009-08-16, 02:25:04,VALID,999.207,VALID,0,VALID,85.1389,VALID,0,VALID,22.6884,VALID,45,VALID,1.14766,
2009-08-16, 02:26:04,VALID,999.202,VALID,0,VALID,85.5128,VALID,0,VALID,22.5714,VALID,45,VALID,0.729297,
2009-08-16, 02:27:04,VALID,999.204,VALID,0,VALID,85.673,VALID,0,VALID,22.4348,VALID,38,VALID,0.536328,
2009-08-16, 02:28:04,VALID,999.158,VALID,0,VALID,86.2757,VALID,0,VALID,22.2983,VALID,37,VALID,0.439844,
2009-08-16, 02:29:04,VALID,999.097,VALID,0,VALID,86.8556,VALID,0,VALID,22.16,VALID,30,VALID,0.778516,
2009-08-16, 02:30:04,VALID,999.126,VALID,0,VALID,87.4507,VALID,0,VALID,22.0235,VALID,29,VALID,0.692969,
2009-08-16, 02:31:04,VALID,999.097,VALID,0,VALID,87.9009,VALID,0,VALID,21.9472,VALID,27,VALID,0.575,
2009-08-16, 02:32:04,VALID,999.075,VALID,0,VALID,88.4731,VALID,0,VALID,21.848,VALID,8,VALID,0.686719,
2009-08-16, 02:33:04,VALID,999.075,VALID,0,VALID,88.8011,VALID,0,VALID,21.809,VALID,7,VALID,0.4125,
2009-08-16, 02:34:04,VALID,999.083,VALID,0,VALID,88.9232,VALID,0,VALID,21.7911,VALID,7,VALID,0.588672,
2009-08-16, 02:35:04,VALID,999.061,VALID,0,VALID,89.2971,VALID,0,VALID,21.7505,VALID,7,VALID,0.629297,
2009-08-16, 02:36:04,VALID,999.041,VALID,0,VALID,89.648,VALID,0,VALID,21.731,VALID,7,VALID,0.443359,
2009-08-16, 02:37:04,VALID,999.018,VALID,0,VALID,89.7396,VALID,0,VALID,21.731,VALID,7,VALID,0.411719,
2009-08-16, 02:38:04,VALID,999.034,VALID,0,VALID,89.6709,VALID,0,VALID,21.7326,VALID,7,VALID,0.259375,
2009-08-16, 02:39:04,VALID,999.023,VALID,0,VALID,89.7091,VALID,0,VALID,21.7131,VALID,7,VALID,0.00585938,
2009-08-16, 02:40:04,VALID,999.007,VALID,0,VALID,89.793,VALID,0,VALID,21.6725,VALID,7,VALID,0.217969,
2009-08-16, 02:41:04,VALID,998.943,VALID,0,VALID,90.1668,VALID,0,VALID,21.6936,VALID,7,VALID,0.190625,
2009-08-16, 02:42:04,VALID,998.94,VALID,0,VALID,90.2355,VALID,0,VALID,21.7131,VALID,7,VALID,0.308594,
2009-08-16, 02:43:04,VALID,998.963,VALID,0,VALID,90.1974,VALID,0,VALID,21.6936,VALID,7,VALID,0.269531,
2009-08-16, 02:44:04,VALID,998.954,VALID,0,VALID,90.1821,VALID,0,VALID,21.6725,VALID,7,VALID,0.142188,
2009-08-16, 02:45:04,VALID,998.971,VALID,0,VALID,90.3728,VALID,0,VALID,21.6741,VALID,7,VALID,0.340234,
2009-08-16, 02:46:04,VALID,998.929,VALID,0,VALID,90.4568,VALID,0,VALID,21.7131,VALID,8,VALID,0.508203,
2009-08-16, 02:47:04,VALID,998.931,VALID,0,VALID,90.2508,VALID,0,VALID,21.6725,VALID,33,VALID,0.523047,
2009-08-16, 02:48:04,VALID,998.931,VALID,0,VALID,89.938,VALID,0,VALID,21.7131,VALID,62,VALID,0.414063,
2009-08-16, 02:49:04,VALID,998.922,VALID,0,VALID,89.8388,VALID,0,VALID,21.653,VALID,62,VALID,0.021875,
2009-08-16, 02:50:04,VALID,998.958,VALID,0,VALID,90.0524,VALID,0,VALID,21.6335,VALID,62,VALID,0.310156,
2009-08-16, 02:51:04,VALID,998.96,VALID,0,VALID,90.1058,VALID,0,VALID,21.6741,VALID,61,VALID,0.338672,
2009-08-16, 02:52:04,VALID,998.932,VALID,0,VALID,90.0753,VALID,0,VALID,21.653,VALID,61,VALID,0.160547,
2009-08-16, 02:53:04,VALID,998.979,VALID,0,VALID,90.1211,VALID,0,VALID,21.6741,VALID,61,VALID,0.25,
2009-08-16, 02:54:04,VALID,998.94,VALID,0,VALID,90.1363,VALID,0,VALID,21.692,VALID,61,VALID,0.303906,
2009-08-16, 02:55:04,VALID,998.981,VALID,0,VALID,90.0448,VALID,0,VALID,21.692,VALID,61,VALID,0.330469,
2009-08-16, 02:56:04,VALID,999.005,VALID,0,VALID,89.999,VALID,0,VALID,21.7131,VALID,60,VALID,0.573047,
2009-08-16, 02:57:04,VALID,999.022,VALID,0,VALID,89.8235,VALID,0,VALID,21.6936,VALID,41,VALID,0.7,
2009-08-16, 02:58:04,VALID,999.026,VALID,0,VALID,90.0906,VALID,0,VALID,21.6741,VALID,27,VALID,0.815625,
2009-08-16, 02:59:04,VALID,999.038,VALID,0,VALID,89.8083,VALID,0,VALID,21.614,VALID,27,VALID,0.452344,
2009-08-16, 03:00:04,VALID,999.024,VALID,0,VALID,89.8693,VALID,0,VALID,21.536,VALID,17,VALID,0.885156,
2009-08-16, 03:01:04,VALID,999.029,VALID,0,VALID,89.9609,VALID,0,VALID,21.4791,VALID,43,VALID,0.99375,
2009-08-16, 03:02:04,VALID,999.062,VALID,0,VALID,90.4263,VALID,0,VALID,21.4596,VALID,50,VALID,0.973828,
2009-08-16, 03:03:04,VALID,999.072,VALID,0,VALID,90.7391,VALID,0,VALID,21.4385,VALID,50,VALID,0.924609,
2009-08-16, 03:04:04,VALID,999.088,VALID,0,VALID,90.884,VALID,0,VALID,21.3995,VALID,46,VALID,0.841016,
2009-08-16, 03:05:04,VALID,999.114,VALID,0,VALID,90.7925,VALID,0,VALID,21.38,VALID,46,VALID,0.520703,
2009-08-16, 03:06:04,VALID,999.089,VALID,0,VALID,90.6551,VALID,0,VALID,21.3621,VALID,46,VALID,0.4625,
2009-08-16, 03:07:04,VALID,999.154,VALID,0,VALID,90.8383,VALID,0,VALID,21.302,VALID,6,VALID,0.485156,
2009-08-16, 03:08:04,VALID,999.167,VALID,0,VALID,91.4181,VALID,0,VALID,21.3231,VALID,331,VALID,0.754297,
2009-08-16, 03:09:04,VALID,999.163,VALID,0,VALID,91.6241,VALID,0,VALID,21.3816,VALID,315,VALID,0.658594,
2009-08-16, 03:10:04,VALID,999.104,VALID,0,VALID,91.7385,VALID,0,VALID,21.3995,VALID,304,VALID,0.814062,
2009-08-16, 03:11:04,VALID,999.158,VALID,0,VALID,91.7691,VALID,0,VALID,21.4385,VALID,304,VALID,0.516797,
2009-08-16, 03:12:04,VALID,999.156,VALID,0,VALID,91.5783,VALID,0,VALID,21.4596,VALID,304,VALID,0.136328,
2009-08-16, 03:13:04,VALID,999.116,VALID,0,VALID,91.6317,VALID,0,VALID,21.4385,VALID,304,VALID,0.398047,
2009-08-16, 03:14:04,VALID,999.104,VALID,0,VALID,91.6546,VALID,0,VALID,21.458,VALID,304,VALID,0.348828,
2009-08-16, 03:15:04,VALID,999.135,VALID,0,VALID,91.5783,VALID,0,VALID,21.4775,VALID,304,VALID,0.0621094,
2009-08-16, 03:16:04,VALID,999.12,VALID,0,VALID,91.502,VALID,0,VALID,21.4775,VALID,304,VALID,0,
2009-08-16, 03:17:04,VALID,999.094,VALID,0,VALID,91.5783,VALID,0,VALID,21.497,VALID,305,VALID,0.535937,
2009-08-16, 03:18:04,VALID,999.127,VALID,0,VALID,91.5097,VALID,0,VALID,21.5181,VALID,305,VALID,0.195313,
2009-08-16, 03:19:04,VALID,999.129,VALID,0,VALID,91.4181,VALID,0,VALID,21.497,VALID,305,VALID,0.310937,
2009-08-16, 03:20:04,VALID,999.124,VALID,0,VALID,91.4105,VALID,0,VALID,21.5181,VALID,303,VALID,0.341797,
2009-08-16, 03:21:04,VALID,999.125,VALID,0,VALID,91.4868,VALID,0,VALID,21.5181,VALID,303,VALID,0.294531,
2009-08-16, 03:22:04,VALID,999.096,VALID,0,VALID,91.5326,VALID,0,VALID,21.5571,VALID,303,VALID,0.433203,
2009-08-16, 03:23:04,VALID,999.174,VALID,0,VALID,91.1816,VALID,0,VALID,21.5376,VALID,304,VALID,0.433203,
2009-08-16, 03:24:04,VALID,999.163,VALID,0,VALID,90.556,VALID,0,VALID,21.458,VALID,304,VALID,0.251172,
2009-08-16, 03:25:04,VALID,999.205,VALID,0,VALID,90.9451,VALID,0,VALID,21.4206,VALID,304,VALID,0.203516,
2009-08-16, 03:26:04,VALID,999.234,VALID,0,VALID,91.2045,VALID,0,VALID,21.38,VALID,304,VALID,0,
2009-08-16, 03:27:04,VALID,999.242,VALID,0,VALID,91.3037,VALID,0,VALID,21.4011,VALID,303,VALID,0,
2009-08-16, 03:28:04,VALID,999.189,VALID,0,VALID,91.4715,VALID,0,VALID,21.38,VALID,304,VALID,0.0398437,
2009-08-16, 03:29:04,VALID,999.183,VALID,0,VALID,91.3571,VALID,0,VALID,21.3816,VALID,304,VALID,0.293359,
2009-08-16, 03:30:04,VALID,999.173,VALID,0,VALID,91.8454,VALID,0,VALID,21.38,VALID,19,VALID,1.0293,
2009-08-16, 03:31:04,VALID,999.184,VALID,0,VALID,91.8911,VALID,0,VALID,21.4401,VALID,25,VALID,0.908203,
2009-08-16, 03:32:04,VALID,999.22,VALID,0,VALID,91.6623,VALID,0,VALID,21.4385,VALID,41,VALID,0.855469,
2009-08-16, 03:33:04,VALID,999.23,VALID,0,VALID,91.3342,VALID,0,VALID,21.458,VALID,41,VALID,0.9125,
2009-08-16, 03:34:04,VALID,999.266,VALID,0,VALID,91.3113,VALID,0,VALID,21.4775,VALID,41,VALID,0.695313,
2009-08-16, 03:35:04,VALID,999.247,VALID,0,VALID,90.9527,VALID,0,VALID,21.5181,VALID,41,VALID,0.735937,
2009-08-16, 03:36:04,VALID,999.252,VALID,0,VALID,90.7314,VALID,0,VALID,21.497,VALID,41,VALID,1.02461,
2009-08-16, 03:37:04,VALID,999.247,VALID,0,VALID,90.5788,VALID,0,VALID,21.4986,VALID,49,VALID,0.986328,
2009-08-16, 03:38:04,VALID,999.268,VALID,0,VALID,90.2889,VALID,0,VALID,21.4791,VALID,54,VALID,1.08516,
2009-08-16, 03:39:04,VALID,999.281,VALID,0,VALID,90.9374,VALID,0,VALID,21.497,VALID,60,VALID,0.925391,
2009-08-16, 03:40:04,VALID,999.289,VALID,0,VALID,90.7085,VALID,0.112286,VALID,21.5555,VALID,60,VALID,0.607031,
2009-08-16, 03:41:04,VALID,999.3,VALID,0,VALID,90.2279,VALID,0,VALID,21.5945,VALID,60,VALID,0.439844,
2009-08-16, 03:42:04,VALID,999.296,VALID,0,VALID,90.0906,VALID,0,VALID,21.6351,VALID,46,VALID,0.441406,
2009-08-16, 03:43:04,VALID,999.344,VALID,0,VALID,89.8311,VALID,0,VALID,21.575,VALID,13,VALID,0.705469,
2009-08-16, 03:44:04,VALID,999.346,VALID,0,VALID,89.999,VALID,0,VALID,21.5555,VALID,13,VALID,1.07734,
2009-08-16, 03:45:04,VALID,999.37,VALID,0,VALID,89.8769,VALID,0,VALID,21.536,VALID,14,VALID,0.791406,
2009-08-16, 03:46:04,VALID,999.347,VALID,0,VALID,90.1287,VALID,0,VALID,21.5165,VALID,14,VALID,0.920703,